Weather History for Corinth, MS

Change the Weather History Date:

Saturday, October 20, 2012

  Actual Average Record
Temperature  
Mean Temperature 54 °F -  
Max Temperature 69 °F 71 °F 89 °F (1953)
Min Temperature 39 °F 45 °F 30 °F (1966)
Degree Days  
Heating Degree Days 11    
Growing Degree Days 4 (Base 50)    
Moisture  
Dew Point 43 °F    
Average Humidity 69    
Maximum Humidity 100    
Minimum Humidity 35    
Precipitation  
Precipitation 0.00 in - - ()
Sea Level Pressure  
Sea Level Pressure 29.94 in    
Wind  
Wind Speed 2 mph (WSW)    
Max Wind Speed 12 mph    
Max Gust Speed 17 mph    
Visibility 9 miles    
Events      
Averages and records for this station are not official NWS values.
T = Trace of Precipitation, MM = Missing Value Source: NWS Daily Summary

Daily Weather History Graph

Daily Weather History Graph

Search for Another Location

Airport:

Trip Planner

Search our weather history database for the weather conditions in past years. The results will help you decide how hot, cold, wet, or windy it might be!

Date:

Astronomy

Oct. 20, 2012 Rise Set
Actual Time 7:04 AM CDT 6:12 PM CDT
Civil Twilight 6:39 AM CDT 6:38 PM CDT
Nautical Twilight 6:09 AM CDT 7:07 PM CDT
Astronomical Twilight 5:40 AM CDT 7:37 PM CDT
Moon 12:33 PM CDT 11:04 PM CDT
Length of Visible Light 11h 59m
Length of Day
11h 07m
Waxing Crescent, 34% of the Moon is Illuminated
Oct 20
Waxing Crescent
Oct 21
First Quarter
Oct 29
Full
Nov 6
Last Quarter
Nov 13
New

Hourly Weather History & Observations

Time (CDT) Temp. Dew Point Humidity Pressure Visibility Wind Dir Wind Speed Gust Speed Precip Events Conditions
12:05 AM 53.6 °F 44.6 °F 72% 29.88 in 10.0 mi Calm Calm - N/A   Overcast
12:25 AM 53.6 °F 44.6 °F 72% 29.88 in 10.0 mi WNW 3.5 mph - N/A   Overcast
12:45 AM 53.6 °F 42.8 °F 67% 29.89 in 10.0 mi NW 4.6 mph - N/A   Overcast
1:05 AM 51.8 °F 42.8 °F 71% 29.89 in 10.0 mi Calm Calm - N/A   Scattered Clouds
1:45 AM 48.2 °F 42.8 °F 82% 29.89 in 10.0 mi Calm Calm - N/A   Clear
2:05 AM 48.2 °F 42.8 °F 82% 29.89 in 10.0 mi Calm Calm - N/A   Clear
2:25 AM 46.4 °F 42.8 °F 87% 29.89 in 10.0 mi Calm Calm - N/A   Clear
2:45 AM 46.4 °F 41.0 °F 81% 29.89 in 10.0 mi Calm Calm - N/A   Clear
3:05 AM 44.6 °F 41.0 °F 87% 29.89 in 10.0 mi Calm Calm - N/A   Clear
3:45 AM 44.6 °F 41.0 °F 87% 29.89 in 10.0 mi Calm Calm - N/A   Clear
4:05 AM 42.8 °F 41.0 °F 93% 29.90 in 10.0 mi Calm Calm - N/A   Clear
5:05 AM 41.0 °F 41.0 °F 100% 29.91 in 5.0 mi Calm Calm - N/A   Clear
5:25 AM 41.0 °F 41.0 °F 100% 29.92 in 10.0 mi Calm Calm - N/A   Clear
5:45 AM 41.0 °F 39.2 °F 93% 29.93 in 10.0 mi Calm Calm - N/A   Clear
6:05 AM 41.0 °F 39.2 °F 93% 29.93 in 3.0 mi Calm Calm - N/A   Clear
6:25 AM 41.0 °F 39.2 °F 93% 29.94 in 10.0 mi Calm Calm - N/A   Clear
6:45 AM 39.2 °F 39.2 °F 100% 29.93 in 9.0 mi Calm Calm - N/A   Clear
7:05 AM 41.0 °F 39.2 °F 93% 29.94 in 10.0 mi Calm Calm - N/A   Clear
7:25 AM 41.0 °F 39.2 °F 93% 29.95 in 10.0 mi Calm Calm - N/A   Clear
7:45 AM 44.6 °F 41.0 °F 87% 29.96 in 10.0 mi Calm Calm - N/A   Clear
8:05 AM 46.4 °F 42.8 °F 87% 29.96 in 10.0 mi Calm Calm - N/A   Clear
8:25 AM 46.4 °F 42.8 °F 87% 29.98 in 10.0 mi Calm Calm - N/A   Clear
8:45 AM 50.0 °F 44.6 °F 82% 29.98 in 10.0 mi Calm Calm - N/A   Clear
9:05 AM 53.6 °F 44.6 °F 72% 29.99 in 10.0 mi WSW 3.5 mph - N/A   Clear
9:25 AM 55.4 °F 44.6 °F 67% 30.00 in 10.0 mi Calm Calm - N/A   Clear
9:45 AM 59.0 °F 42.8 °F 55% 30.00 in 10.0 mi West 6.9 mph - N/A   Clear
10:05 AM 59.0 °F 41.0 °F 51% 30.00 in 10.0 mi WNW 9.2 mph - N/A   Clear
10:25 AM 59.0 °F 41.0 °F 51% 29.99 in 10.0 mi West 5.8 mph - N/A   Clear
11:05 AM 62.6 °F 41.0 °F 45% 29.99 in 10.0 mi WNW 6.9 mph - N/A   Clear
11:25 AM 62.6 °F 42.8 °F 48% 29.99 in 10.0 mi WNW 10.4 mph - N/A   Clear
11:45 AM 64.4 °F 42.8 °F 45% 29.99 in 10.0 mi WSW 6.9 mph - N/A   Clear
12:05 PM 64.4 °F 41.0 °F 42% 29.98 in 10.0 mi West 10.4 mph - N/A   Clear
12:25 PM 64.4 °F 42.8 °F 45% 29.98 in 10.0 mi WSW 8.1 mph - N/A   Clear
12:45 PM 64.4 °F 41.0 °F 42% 29.97 in 10.0 mi West 8.1 mph - N/A   Clear
1:05 PM 66.2 °F 41.0 °F 40% 29.96 in 10.0 mi WNW 3.5 mph - N/A   Clear
1:25 PM 66.2 °F 42.8 °F 43% 29.96 in 10.0 mi West 11.5 mph 17.3 mph N/A   Clear
1:45 PM 68.0 °F 42.8 °F 40% 29.95 in 10.0 mi WNW 8.1 mph - N/A   Clear
2:05 PM 68.0 °F 42.8 °F 40% 29.94 in 10.0 mi West 9.2 mph - N/A   Clear
2:25 PM 68.0 °F 42.8 °F 40% 29.94 in 10.0 mi WNW 6.9 mph - N/A   Clear
2:45 PM 68.0 °F 41.0 °F 37% 29.93 in 4.0 mi West 11.5 mph 17.3 mph N/A   Haze
3:25 PM 68.0 °F 41.0 °F 37% 29.93 in 10.0 mi Calm Calm - N/A   Clear
3:45 PM 69.8 °F 41.0 °F 35% 29.93 in 2.5 mi WNW 8.1 mph - N/A   Haze
4:05 PM 68.0 °F 41.0 °F 37% 29.93 in 3.0 mi West 6.9 mph - N/A   Haze
4:25 PM 68.0 °F 42.8 °F 40% 29.93 in 10.0 mi WSW 3.5 mph - N/A   Clear
4:45 PM 68.0 °F 42.8 °F 40% 29.93 in 10.0 mi SW 5.8 mph - N/A   Clear
5:25 PM 68.0 °F 44.6 °F 43% 29.93 in 10.0 mi Calm Calm - N/A   Clear
5:45 PM 66.2 °F 44.6 °F 46% 29.94 in 10.0 mi South 3.5 mph - N/A   Clear
6:05 PM 64.4 °F 44.6 °F 49% 29.93 in 10.0 mi SSW 4.6 mph - N/A   Clear
6:25 PM 59.0 °F 46.4 °F 63% 29.93 in 10.0 mi South 3.5 mph - N/A   Clear
6:45 PM 59.0 °F 46.4 °F 63% 29.94 in 10.0 mi SSE 3.5 mph - N/A   Clear
7:05 PM 55.4 °F 46.4 °F 72% 29.94 in 10.0 mi South 3.5 mph - N/A   Clear
7:25 PM 55.4 °F 46.4 °F 72% 29.94 in 10.0 mi South 3.5 mph - N/A   Clear
7:45 PM 53.6 °F 46.4 °F 77% 29.95 in 10.0 mi ESE 3.5 mph - N/A   Clear
8:05 PM 53.6 °F 46.4 °F 77% 29.95 in 10.0 mi Calm Calm - N/A   Clear
8:45 PM 50.0 °F 46.4 °F 87% 29.95 in 10.0 mi Calm Calm - N/A   Clear
9:05 PM 50.0 °F 46.4 °F 87% 29.95 in 10.0 mi Calm Calm - N/A   Clear
9:25 PM 48.2 °F 46.4 °F 93% 29.96 in 10.0 mi Calm Calm - N/A   Clear
9:45 PM 50.0 °F 46.4 °F 87% 29.96 in 9.0 mi SSE 3.5 mph - N/A   Clear
10:05 PM 48.2 °F 44.6 °F 87% 29.97 in 10.0 mi Calm Calm - N/A   Clear
10:25 PM 48.2 °F 44.6 °F 87% 29.97 in 10.0 mi Calm Calm - N/A   Clear
10:45 PM 48.2 °F 44.6 °F 87% 29.97 in 10.0 mi Calm Calm - N/A   Clear
11:05 PM 46.4 °F 44.6 °F 93% 29.98 in 9.0 mi Calm Calm - N/A   Clear
11:25 PM 46.4 °F 44.6 °F 93% 29.98 in 10.0 mi Calm Calm - N/A   Clear
11:45 PM 46.4 °F 44.6 °F 93% 29.99 in 10.0 mi Calm Calm - N/A   Clear